Siga o Apolo11 no Facebook   Siga o Apolo11 no Twiiter
Ciência, Espaço e Tecnologia




Elementos Keplerianos formato Two Line

Para que um programa de rastreio possa saber a localização exata de qualquer satélite no espaço e assim poder rastreá-lo corretamente, é necessário que ele seja carregado com algumas informações.

Estas informações são chamadas de Elementos Orbitais ou Elementos Keplerianos e consistem em 2 linhas com dezenas de números. Esses números nada mais são que os parâmetros orbitais do satélite, tais como altitude, atitude, excentricidade da órbita, número de órbitas por dia, etc.

Com base nestas informações o programa é capaz de determinar com bastante exatidão a posição de qualquer satélite no espaço e nos informar em qual horário este estará dentro do alcance de nossa estação. Para que isso seja feito com precisão é necessário que os dados estejam sempre bem atualizadas.

Devido aos parâmetros orbitais serem descritos em 2 linhas, estes formato é também conhecido internacionalmente por 2line (leia-se Two Line”).

Para atualizar seu programa de rastreio basta copiar os dados disponibilizados e fornece-los ao programa. Nossos elementos orbitais são atualizados diariamente.

NOAATodos os satélites ambientais da série NOAA
30 DiasSatélites lançados nos últimos 30 dias
ISSSatélites e foguetes relacionados à Estação Espacial Internacional
HAMSatélites construídos por radiomadores
CUBESatélites tipo cubo, com 10 centímetros de lado
METEOSatélites voltados à previsão do tempo
EDUSatélites construídos e operados por universidades
VIS100 satélites mais brilhantes que podem ser vistos a olho nú



Satélites Educacionais
SAUDISAT 1A             
1 26545U 00057A   13197.51834368  .00000241  00000-0  48053-4 0  5237
2 26545  64.5544 201.2871 0053257 248.5092 255.6260 14.82224789691925
UNISAT                  
1 26547U 00057C   13198.12499918  .00000565  00000-0  81662-4 0  5394
2 26547  64.5529 168.4444 0058265 250.6012 187.2043 14.85164421692659
SAUDISAT 1B             
1 26549U 00057E   13198.17203225  .00000190  00000-0  42821-4 0  6103
2 26549  64.5543 224.3829 0057961 250.3240 169.2730 14.80995032691510
MOZHAYETS               
1 27560U 02054B   13198.00997442  .00000550  00000-0  13380-3 0  7343
2 27560  98.0076 349.4341 0041384 244.3771 115.3142 14.56027171563597
SAUDISAT 1C             
1 27607U 02058C   13198.12862147  .00000212  00000-0  53699-4 0  1173
2 27607  64.5566 172.9824 0041514 154.1471 286.8032 14.72998927568126
UNISAT 2                
1 27608U 02058D   13197.29641713  .00000151  00000-0  42053-4 0  1281
2 27608  64.5574 120.2282 0022429 150.1920 353.5209 14.75767670569153
SAUDISAT 2              
1 28371U 04025F   13198.20964244  .00000265  00000-0  73578-4 0  1208
2 28371  97.9447 188.9456 0027548  98.0706 262.3619 14.53430943479904
UNISAT 3                
1 28373U 04025H   13197.48670873  .00000091  00000-0  38273-4 0  5755
2 28373  98.1547 159.2889 0069174 241.3001 267.9982 14.44159134477152
SSETI EXPRESS (XO-53)   
1 28894U 05043E   13197.63146804  .00000144  00000-0  38784-4 0  7391
2 28894  97.8583  49.1469 0017011 357.6860  34.9567 14.60355303411315
SAUDISAT 3              
1 31118U 07012B   13198.21801530  .00000158  00000-0  35189-4 0  7280
2 31118  97.8163 245.0145 0015469 163.8149 196.3564 14.68426852334952


IMAGENS DE SATÉLITES !    Clique e conheça nosso Vídeo Workshop de sensoriamento remoto e imagens meteorológicas.
Apolo11.com - Todos os direitos reservados - 2001 - 2018
Política de Privacidade

"A gente só diz sim ou não no casamento e, ainda assim, às vezes erra." - Itamar Franco